Weather History for Scappoose, OR

Change the Weather History Date:

Wednesday, September 4, 2013

  Actual Average Record
Temperature  
Mean Temperature 67 °F -  
Max Temperature 74 °F - 93 °F (2003)
Min Temperature 60 °F - 42 °F (2002)
Degree Days  
Heating Degree Days 0    
Month to date heating degree days 0  
Since 1 July heating degree days 24  
Cooling Degree Days 2    
Month to date cooling degree days 17  
Year to date cooling degree days 341  
Growing Degree Days 17 (Base 50)    
Moisture  
Dew Point 58 °F    
Average Humidity 76    
Maximum Humidity 90    
Minimum Humidity 61    
Precipitation  
Precipitation 0.00 in - 0.13 in (2007)
Month to date precipitation 0.39  
Year to date precipitation 14.93  
Sea Level Pressure  
Sea Level Pressure 30.02 in    
Wind  
Wind Speed 3 mph (NNE)    
Max Wind Speed 9 mph    
Max Gust Speed 13 mph    
Visibility 10 miles    
Events      
T = Trace of Precipitation, MM = Missing Value Source: NWS Daily Summary

Daily Weather History Graph

Daily Weather History Graph

Search for Another Location

Airport:

Trip Planner

Search our weather history database for the weather conditions in past years. The results will help you decide how hot, cold, wet, or windy it might be!

Date:

Astronomy

Sep. 04, 2013 Rise Set
Actual Time 6:36 AM PDT 7:43 PM PDT
Civil Twilight 6:06 AM PDT 8:13 PM PDT
Nautical Twilight 5:29 AM PDT 8:50 PM PDT
Astronomical Twilight 4:50 AM PDT 9:28 PM PDT
Moon 5:54 AM PDT (9/4) 7:03 PM PDT (9/4)
Length of Visible Light 14h 07m
Length of Day
13h 06m
Waning Crescent, 1% of the Moon is Illuminated
Sep 4
Waning Crescent
Sep 5
New
Sep 12
First Quarter
Sep 19
Full
Sep 26
Last Quarter

Hourly Weather History & Observations

Time (PDT) Temp. Dew Point Humidity Pressure Visibility Wind Dir Wind Speed Gust Speed Precip Events Conditions
12:53 AM 64.9 °F 57.0 °F 75% 29.99 in 10.0 mi NW 3.5 mph - N/A   Clear
1:53 AM 66.0 °F 57.0 °F 73% 29.97 in 10.0 mi NW 8.1 mph - N/A   Clear
2:53 AM 64.0 °F 57.0 °F 78% 29.99 in 10.0 mi NE 4.6 mph - N/A   Scattered Clouds
3:53 AM 64.0 °F 55.9 °F 75% 29.99 in 10.0 mi North 3.5 mph - N/A   Mostly Cloudy
4:53 AM 62.1 °F 55.9 °F 80% 29.99 in 10.0 mi Calm Calm - N/A   Scattered Clouds
5:53 AM 61.0 °F 57.0 °F 87% 30.00 in 10.0 mi Calm Calm - N/A   Mostly Cloudy
6:53 AM 62.1 °F 57.0 °F 84% 30.01 in 10.0 mi Calm Calm - N/A   Overcast
7:53 AM 63.0 °F 57.0 °F 81% 30.01 in 10.0 mi Calm Calm - N/A   Overcast
8:53 AM 64.9 °F 57.9 °F 78% 30.02 in 10.0 mi Calm Calm - N/A   Overcast
9:53 AM 66.0 °F 57.9 °F 75% 30.03 in 10.0 mi North 5.8 mph - N/A   Overcast
10:53 AM 66.9 °F 57.9 °F 73% 30.04 in 10.0 mi Calm Calm - N/A   Overcast
11:53 AM 68.0 °F 57.9 °F 70% 30.05 in 10.0 mi Calm Calm - N/A   Overcast
12:53 PM 71.1 °F 59.0 °F 66% 30.03 in 10.0 mi NE 6.9 mph - N/A   Overcast
1:53 PM 70.0 °F 59.0 °F 68% 30.04 in 10.0 mi East 3.5 mph - N/A   Overcast
2:42 PM 71.6 °F 59.0 °F 64% 30.04 in 10.0 mi Calm Calm - N/A   Overcast
2:53 PM 71.1 °F 59.0 °F 66% 30.04 in 10.0 mi East 3.5 mph - N/A   Overcast
3:14 PM 71.6 °F 59.0 °F 64% 30.04 in 10.0 mi NNE 4.6 mph - N/A   Overcast
3:30 PM 73.4 °F 60.8 °F 65% 30.03 in 10.0 mi North 4.6 mph - N/A   Scattered Clouds
3:53 PM 73.0 °F 59.0 °F 61% 30.03 in 10.0 mi NNE 4.6 mph - N/A   Mostly Cloudy
4:07 PM 73.4 °F 59.0 °F 61% 30.02 in 10.0 mi NNE 5.8 mph - N/A   Mostly Cloudy
4:53 PM 73.0 °F 60.1 °F 64% 30.01 in 10.0 mi ENE 4.6 mph - N/A   Clear
5:53 PM 72.0 °F 60.1 °F 66% 30.01 in 10.0 mi ENE 4.6 mph - N/A   Scattered Clouds
6:53 PM 71.1 °F 59.0 °F 66% 30.00 in 10.0 mi NNE 4.6 mph - N/A   Clear
7:53 PM 69.1 °F 60.1 °F 73% 30.01 in 10.0 mi Calm Calm - N/A   Mostly Cloudy
8:53 PM 66.9 °F 60.1 °F 79% 30.02 in 10.0 mi Calm Calm - N/A   Partly Cloudy
9:53 PM 64.9 °F 60.1 °F 84% 30.03 in 10.0 mi Calm Calm - N/A   Clear
10:53 PM 64.0 °F 57.9 °F 80% 30.02 in 10.0 mi Calm Calm - N/A   Clear
11:53 PM 64.0 °F 55.9 °F 75% 30.01 in 10.0 mi NNW 3.5 mph - N/A   Clear